| time (UTC) | temp C | wind direction | speed KPH | gust KPH | rain 1hr cm | rain 24hr cm | rain mn cm | humidity % | barometer mb |
| 20260906211044 | 31 | 140 | 6.4 | 17.7 | 0.00 | 0.00 | 0.00 | 42 | 1013.9 |
| 20260906210543 | 31 | 136 | 3.2 | 19.3 | 0.00 | 0.00 | 0.00 | 43 | 1014.0 |
| 20260906210055 | 31 | 151 | 11.3 | 24.1 | 0.00 | 0.00 | 0.00 | 42 | 1014.0 |
| 20260906205542 | 30 | 188 | 12.9 | 24.1 | 0.00 | 0.00 | 0.00 | 43 | 1014.0 |
| 20260906205040 | 30 | 134 | 1.6 | 19.3 | 0.00 | 0.00 | 0.00 | 42 | 1014.1 |
| 20260906204542 | 30 | 117 | 12.9 | 16.1 | 0.00 | 0.00 | 0.00 | 43 | 1014.2 |
| 20260906204041 | 31 | 153 | 9.7 | 20.9 | 0.00 | 0.00 | 0.00 | 43 | 1014.2 |
| 20260906203540 | 31 | 177 | 11.3 | 20.9 | 0.00 | 0.00 | 0.00 | 43 | 1014.2 |
| 20260906203039 | 31 | 121 | 8.0 | 22.5 | 0.00 | 0.00 | 0.00 | 45 | 1014.4 |
| 20260906202538 | 30 | 150 | 9.7 | 27.4 | 0.00 | 0.00 | 0.00 | 44 | 1014.4 |
| 20260906202040 | 30 | 159 | 17.7 | 27.4 | 0.00 | 0.00 | 0.00 | 45 | 1014.3 |
| 20260906201538 | 30 | 121 | 9.7 | 24.1 | 0.00 | 0.00 | 0.00 | 43 | 1014.3 |
| 20260906201037 | 30 | 130 | 11.3 | 24.1 | 0.00 | 0.00 | 0.00 | 44 | 1014.4 |
| 20260906200535 | 30 | 115 | 14.5 | 22.5 | 0.00 | 0.00 | 0.00 | 44 | 1014.4 |
| 20260906200042 | 30 | 158 | 9.7 | 22.5 | 0.00 | 0.00 | 0.00 | 43 | 1014.5 |
| 20260906195534 | 30 | 122 | 16.1 | 22.5 | 0.00 | 0.00 | 0.00 | 41 | 1014.5 |
| 20260906195034 | 30 | 115 | 12.9 | 19.3 | 0.00 | 0.00 | 0.00 | 42 | 1014.6 |
| 20260906194538 | 30 | 158 | 4.8 | 14.5 | 0.00 | 0.00 | 0.00 | 42 | 1014.6 |
| 20260906194032 | 30 | 240 | 6.4 | 16.1 | 0.00 | 0.00 | 0.00 | 44 | 1014.7 |
| 20260906193531 | 30 | 199 | 11.3 | 16.1 | 0.00 | 0.00 | 0.00 | 44 | 1014.7 |
| 20260906193030 | 29 | 134 | 4.8 | 19.3 | 0.00 | 0.00 | 0.00 | 45 | 1014.8 |
| 20260906192529 | 29 | 219 | 12.9 | 17.7 | 0.00 | 0.00 | 0.00 | 44 | 1014.8 |
| 20260906192029 | 30 | 248 | 9.7 | 17.7 | 0.00 | 0.00 | 0.00 | 44 | 1014.8 |
| 20260906191539 | 30 | 244 | 3.2 | 24.1 | 0.00 | 0.00 | 0.00 | 44 | 1014.9 |
| 20260906191028 | 30 | 199 | 14.5 | 24.1 | 0.00 | 0.00 | 0.00 | 44 | 1015.0 |
| 20260906190528 | 29 | 198 | 6.4 | 20.9 | 0.00 | 0.00 | 0.00 | 46 | 1014.9 |
| 20260906190038 | 29 | 180 | 6.4 | 14.5 | 0.00 | 0.00 | 0.00 | 47 | 1015.0 |
| 20260906185524 | 29 | 252 | 6.4 | 24.1 | 0.00 | 0.00 | 0.00 | 45 | 1014.9 |
| 20260906185025 | 29 | 261 | 9.7 | 24.1 | 0.00 | 0.00 | 0.00 | 47 | 1015.1 |
| 20260906184522 | 28 | 247 | 11.3 | 16.1 | 0.00 | 0.00 | 0.00 | 46 | 1015.1 |
| 20260906184020 | 28 | 165 | 3.2 | 19.3 | 0.00 | 0.00 | 0.00 | 47 | 1015.3 |
| 20260906183524 | 28 | 171 | 9.7 | 19.3 | 0.00 | 0.00 | 0.00 | 48 | 1015.4 |
| 20260906183020 | 28 | 241 | 6.4 | 17.7 | 0.00 | 0.00 | 0.00 | 47 | 1015.3 |
| 20260906182522 | 28 | 208 | 4.8 | 16.1 | 0.00 | 0.00 | 0.00 | 47 | 1015.4 |
| 20260906182017 | 28 | 169 | 6.4 | 16.1 | 0.00 | 0.00 | 0.00 | 47 | 1015.4 |
| 20260906181530 | 28 | 208 | 11.3 | 17.7 | 0.00 | 0.00 | 0.00 | 48 | 1015.5 |
| 20260906181016 | 28 | 212 | 6.4 | 17.7 | 0.00 | 0.00 | 0.00 | 48 | 1015.5 |
| 20260906180514 | 28 | 157 | 11.3 | 19.3 | 0.00 | 0.00 | 0.00 | 49 | 1015.6 |
| 20260906180013 | 28 | 202 | 9.7 | 24.1 | 0.00 | 0.00 | 0.00 | 49 | 1015.6 |
| 20260906175512 | 27 | 184 | 11.3 | 24.1 | 0.00 | 0.00 | 0.00 | 50 | 1015.8 |
| 20260906175013 | 27 | 186 | 11.3 | 16.1 | 0.00 | 0.00 | 0.00 | 50 | 1015.8 |
| 20260906174510 | 27 | 216 | 8.0 | 17.7 | 0.00 | 0.00 | 0.00 | 50 | 1016.0 |
| 20260906174009 | 27 | 255 | 8.0 | 19.3 | 0.00 | 0.00 | 0.00 | 51 | 1016.0 |
| 20260906173508 | 27 | 175 | 11.3 | 20.9 | 0.00 | 0.00 | 0.00 | 53 | 1016.0 |
| 20260906173008 | 27 | 221 | 6.4 | 25.7 | 0.00 | 0.00 | 0.00 | 52 | 1016.0 |
| 20260906172506 | 26 | 224 | 14.5 | 24.1 | 0.00 | 0.00 | 0.00 | 53 | 1016.1 |
| 20260906172005 | 26 | 221 | 8.0 | 24.1 | 0.00 | 0.00 | 0.00 | 54 | 1016.1 |
| 20260906171505 | 26 | 237 | 9.7 | 20.9 | 0.00 | 0.00 | 0.00 | 54 | 1016.2 |
| 20260906171008 | 26 | 171 | 9.7 | 24.1 | 0.00 | 0.00 | 0.00 | 54 | 1016.3 |
| 20260906170502 | 26 | 178 | 8.0 | 24.1 | 0.00 | 0.00 | 0.00 | 55 | 1016.3 |
| 20260906170002 | 26 | 213 | 9.7 | 22.5 | 0.00 | 0.00 | 0.00 | 55 | 1016.3 |
| 20260906165503 | 26 | 246 | 12.9 | 20.9 | 0.00 | 0.00 | 0.00 | 56 | 1016.3 |
| 20260906165100 | 26 | 175 | 12.9 | 24.1 | 0.00 | 0.00 | 0.00 | 56 | 1016.5 |
| 20260906164700 | 25 | 171 | 16.1 | 24.1 | 0.00 | 0.00 | 0.00 | 57 | 1016.5 |
| 20260906164100 | 25 | 223 | 12.9 | 24.1 | 0.00 | 0.00 | 0.00 | 57 | 1016.5 |
| 20260906163558 | 25 | 195 | 9.7 | 24.1 | 0.00 | 0.00 | 0.00 | 57 | 1016.5 |
| 20260906163057 | 25 | 204 | 11.3 | 30.6 | 0.00 | 0.00 | 0.00 | 57 | 1016.6 |
| 20260906162556 | 25 | 222 | 12.9 | 30.6 | 0.00 | 0.00 | 0.00 | 58 | 1016.5 |
| 20260906162056 | 25 | 205 | 16.1 | 27.4 | 0.00 | 0.00 | 0.00 | 57 | 1016.6 |
| 20260906161555 | 24 | 158 | 16.1 | 27.4 | 0.00 | 0.00 | 0.00 | 58 | 1016.6 |
| 20260906161053 | 24 | 203 | 17.7 | 25.7 | 0.00 | 0.00 | 0.00 | 57 | 1016.7 |
| 20260906160551 | 23 | 186 | 14.5 | 24.1 | 0.00 | 0.00 | 0.00 | 58 | 1016.6 |
| 20260906160051 | 23 | 209 | 9.7 | 25.7 | 0.00 | 0.00 | 0.00 | 57 | 1016.7 |
| 20260906155549 | 23 | 213 | 6.4 | 20.9 | 0.00 | 0.00 | 0.00 | 58 | 1016.6 |
| 20260906155051 | 23 | 200 | 12.9 | 27.4 | 0.00 | 0.00 | 0.00 | 58 | 1016.7 |
| 20260906154554 | 23 | 192 | 11.3 | 19.3 | 0.00 | 0.00 | 0.00 | 60 | 1016.7 |
| 20260906154048 | 22 | 160 | 4.8 | 19.3 | 0.00 | 0.00 | 0.00 | 62 | 1016.8 |
| 20260906153544 | 22 | 163 | 4.8 | 19.3 | 0.00 | 0.00 | 0.00 | 62 | 1016.7 |
| 20260906153043 | 22 | 194 | 12.9 | 22.5 | 0.00 | 0.00 | 0.00 | 62 | 1016.8 |
| 20260906152541 | 22 | 202 | 11.3 | 22.5 | 0.00 | 0.00 | 0.00 | 62 | 1016.8 |
| 20260906152040 | 21 | 213 | 14.5 | 20.9 | 0.00 | 0.00 | 0.00 | 64 | 1016.7 |
| 20260906151539 | 21 | 223 | 9.7 | 20.9 | 0.00 | 0.00 | 0.00 | 65 | 1016.8 |
| 20260906151037 | 21 | 213 | 9.7 | 25.7 | 0.00 | 0.00 | 0.00 | 66 | 1016.7 |
| 20260906150537 | 21 | 204 | 9.7 | 25.7 | 0.00 | 0.00 | 0.00 | 67 | 1016.8 |
| 20260906150034 | 20 | 184 | 8.0 | 25.7 | 0.00 | 0.00 | 0.00 | 68 | 1016.8 |
| 20260906145532 | 20 | 136 | 9.7 | 24.1 | 0.00 | 0.00 | 0.00 | 69 | 1016.8 |
| 20260906145034 | 20 | 215 | 11.3 | 24.1 | 0.00 | 0.00 | 0.00 | 70 | 1016.9 |
| 20260906144530 | 19 | 224 | 9.7 | 22.5 | 0.00 | 0.00 | 0.00 | 72 | 1016.9 |
| 20260906144032 | 19 | 169 | 12.9 | 22.5 | 0.00 | 0.00 | 0.00 | 74 | 1016.9 |
| 20260906143527 | 18 | 199 | 9.7 | 24.1 | 0.00 | 0.00 | 0.00 | 74 | 1017.0 |
| 20260906143033 | 18 | 246 | 12.9 | 22.5 | 0.00 | 0.00 | 0.00 | 75 | 1016.9 |
| 20260906142529 | 18 | 192 | 11.3 | 22.5 | 0.00 | 0.00 | 0.00 | 76 | 1017.0 |
| 20260906142024 | 17 | 168 | 9.7 | 22.5 | 0.00 | 0.00 | 0.00 | 78 | 1017.0 |
| 20260906141521 | 17 | 171 | 12.9 | 24.1 | 0.00 | 0.00 | 0.00 | 79 | 1017.1 |
| 20260906141021 | 17 | 195 | 11.3 | 22.5 | 0.00 | 0.00 | 0.00 | 82 | 1017.1 |
| 20260906140526 | 16 | 223 | 11.3 | 17.7 | 0.00 | 0.00 | 0.00 | 84 | 1016.9 |
| 20260906140035 | 16 | 206 | 11.3 | 16.1 | 0.00 | 0.00 | 0.00 | 85 | 1017.0 |
| 20260906135520 | 16 | 211 | 6.4 | 14.5 | 0.00 | 0.00 | 0.00 | 86 | 1016.9 |
| 20260906135019 | 15 | 202 | 8.0 | 14.5 | 0.00 | 0.00 | 0.00 | 87 | 1017.0 |
| 20260906134519 | 15 | 164 | 6.4 | 14.5 | 0.00 | 0.00 | 0.00 | 88 | 1017.1 |
| 20260906134020 | 15 | 171 | 4.8 | 12.9 | 0.00 | 0.00 | 0.00 | 88 | 1017.1 |
| 20260906133519 | 15 | 169 | 8.0 | 16.1 | 0.00 | 0.00 | 0.00 | 88 | 1017.0 |
| 20260906133019 | 15 | 211 | 8.0 | 16.1 | 0.00 | 0.00 | 0.00 | 88 | 1017.0 |
| 20260906132520 | 15 | 197 | 4.8 | 12.9 | 0.00 | 0.00 | 0.00 | 89 | 1017.0 |
| 20260906132019 | 14 | 215 | 4.8 | 12.9 | 0.00 | 0.00 | 0.00 | 89 | 1017.1 |
| 20260906131518 | 14 | 223 | 6.4 | 11.3 | 0.00 | 0.00 | 0.00 | 89 | 1017.0 |
| 20260906131018 | 14 | 180 | 8.0 | 12.9 | 0.00 | 0.00 | 0.00 | 89 | 1017.1 |
| 20260906130518 | 14 | 164 | 4.8 | 14.5 | 0.00 | 0.00 | 0.00 | 90 | 1017.1 |
| 20260906130031 | 13 | 190 | 8.0 | 17.7 | 0.00 | 0.00 | 0.00 | 89 | 1016.9 |
| 20260906125517 | 13 | 192 | 11.3 | 17.7 | 0.00 | 0.00 | 0.00 | 89 | 1016.9 |
| 20260906125015 | 13 | 209 | 11.3 | 17.7 | 0.00 | 0.00 | 0.00 | 90 | 1016.9 |
| 20260906124517 | 13 | 219 | 9.7 | 16.1 | 0.00 | 0.00 | 0.00 | 90 | 1016.8 |
| 20260906124016 | 13 | 192 | 8.0 | 14.5 | 0.00 | 0.00 | 0.00 | 89 | 1016.8 |
| 20260906123512 | 13 | 180 | 4.8 | 12.9 | 0.00 | 0.00 | 0.00 | 88 | 1016.8 |
| 20260906123015 | 13 | 178 | 6.4 | 14.5 | 0.00 | 0.00 | 0.00 | 89 | 1016.9 |
| 20260906122512 | 13 | 210 | 4.8 | 14.5 | 0.00 | 0.00 | 0.00 | 89 | 1016.7 |
| 20260906122012 | 13 | 173 | 6.4 | 11.3 | 0.00 | 0.00 | 0.00 | 88 | 1016.7 |
| 20260906121512 | 13 | 214 | 4.8 | 16.1 | 0.00 | 0.00 | 0.00 | 89 | 1016.7 |
| 20260906121011 | 13 | 181 | 8.0 | 16.1 | 0.00 | 0.00 | 0.00 | 88 | 1016.7 |
| 20260906120510 | 13 | 193 | 6.4 | 11.3 | 0.00 | 0.00 | 0.00 | 88 | 1016.7 |
| 20260906120010 | 13 | 171 | 4.8 | 9.7 | 0.00 | 0.00 | 0.00 | 88 | 1016.9 |
| 20260906115511 | 13 | 241 | 4.8 | 12.9 | 0.00 | 0.00 | 0.00 | 87 | 1016.7 |
| 20260906115009 | 13 | 206 | 8.0 | 14.5 | 0.00 | 0.00 | 0.00 | 88 | 1016.8 |
| 20260906114509 | 13 | 175 | 6.4 | 14.5 | 0.00 | 0.00 | 0.00 | 87 | 1016.7 |
| 20260906114013 | 13 | 208 | 6.4 | 12.9 | 0.00 | 0.00 | 0.00 | 87 | 1016.6 |
| 20260906113509 | 13 | 212 | 6.4 | 14.5 | 0.00 | 0.00 | 0.00 | 87 | 1016.7 |
| 20260906113009 | 14 | 176 | 8.0 | 16.1 | 0.00 | 0.00 | 0.00 | 87 | 1016.6 |
| 20260906112509 | 14 | 204 | 8.0 | 16.1 | 0.00 | 0.00 | 0.00 | 87 | 1016.7 |
| 20260906112011 | 14 | 209 | 8.0 | 14.5 | 0.00 | 0.00 | 0.00 | 87 | 1016.8 |
| 20260906111518 | 14 | 175 | 6.4 | 16.1 | 0.00 | 0.00 | 0.00 | 87 | 1016.8 |
| 20260906111008 | 14 | 144 | 6.4 | 16.1 | 0.00 | 0.00 | 0.00 | 88 | 1016.7 |
| 20260906110510 | 13 | 174 | 8.0 | 16.1 | 0.00 | 0.00 | 0.00 | 88 | 1016.6 |
| 20260906110012 | 13 | 169 | 9.7 | 16.1 | 0.00 | 0.00 | 0.00 | 88 | 1016.6 |
| 20260906105509 | 13 | 220 | 8.0 | 17.7 | 0.00 | 0.00 | 0.00 | 89 | 1016.7 |
| 20260906105006 | 13 | 138 | 9.7 | 17.7 | 0.00 | 0.00 | 0.00 | 90 | 1016.7 |
| 20260906104511 | 13 | 180 | 9.7 | 16.1 | 0.00 | 0.00 | 0.00 | 90 | 1016.8 |
| 20260906104004 | 13 | 178 | 4.8 | 12.9 | 0.00 | 0.00 | 0.00 | 89 | 1016.8 |
| 20260906103502 | 13 | 137 | 6.4 | 12.9 | 0.00 | 0.00 | 0.00 | 89 | 1016.8 |
| 20260906103002 | 13 | 124 | 4.8 | 6.4 | 0.00 | 0.00 | 0.00 | 89 | 1016.8 |
| 20260906102502 | 13 | 190 | 1.6 | 11.3 | 0.00 | 0.00 | 0.00 | 88 | 1016.7 |
| 20260906102101 | 14 | 126 | 3.2 | 11.3 | 0.00 | 0.00 | 0.00 | 88 | 1016.7 |
| 20260906101559 | 14 | 132 | 4.8 | 9.7 | 0.00 | 0.00 | 0.00 | 89 | 1016.6 |
| 20260906101057 | 14 | 198 | 1.6 | 12.9 | 0.00 | 0.00 | 0.00 | 87 | 1016.5 |
| 20260906100556 | 15 | 155 | 6.4 | 9.7 | 0.00 | 0.00 | 0.00 | 86 | 1016.5 |
| 20260906100055 | 15 | 169 | 4.8 | 12.9 | 0.00 | 0.00 | 0.00 | 85 | 1016.5 |
| 20260906095554 | 15 | 173 | 3.2 | 14.5 | 0.00 | 0.00 | 0.00 | 85 | 1016.5 |
| 20260906095055 | 15 | 170 | 6.4 | 14.5 | 0.00 | 0.00 | 0.00 | 87 | 1016.4 |
| 20260906094554 | 15 | 184 | 4.8 | 12.9 | 0.00 | 0.00 | 0.00 | 86 | 1016.3 |
| 20260906094052 | 15 | 238 | 6.4 | 12.9 | 0.00 | 0.00 | 0.00 | 86 | 1016.2 |
| 20260906093552 | 15 | 236 | 6.4 | 16.1 | 0.00 | 0.00 | 0.00 | 86 | 1016.2 |
| 20260906093105 | 15 | 212 | 9.7 | 16.1 | 0.00 | 0.00 | 0.00 | 86 | 1016.1 |
| 20260906092550 | 15 | 207 | 8.0 | 16.1 | 0.00 | 0.00 | 0.00 | 85 | 1015.9 |
| 20260906092049 | 15 | 212 | 9.7 | 16.1 | 0.00 | 0.00 | 0.00 | 85 | 1016.0 |
| 20260906091548 | 15 | 215 | 8.0 | 16.1 | 0.00 | 0.00 | 0.00 | 85 | 1016.0 |
| 20260906091048 | 15 | 238 | 8.0 | 14.5 | 0.00 | 0.00 | 0.00 | 85 | 1016.0 |
| 20260906090546 | 16 | 228 | 8.0 | 16.1 | 0.00 | 0.00 | 0.00 | 85 | 1016.0 |
| 20260906090045 | 16 | 241 | 6.4 | 12.9 | 0.00 | 0.00 | 0.00 | 84 | 1016.1 |
| 20260906085544 | 16 | 186 | 8.0 | 14.5 | 0.00 | 0.00 | 0.00 | 84 | 1016.2 |
| 20260906085044 | 16 | 222 | 6.4 | 14.5 | 0.00 | 0.00 | 0.00 | 84 | 1016.1 |
| 20260906084544 | 16 | 213 | 6.4 | 14.5 | 0.00 | 0.00 | 0.00 | 84 | 1016.1 |
| 20260906084044 | 16 | 229 | 6.4 | 14.5 | 0.00 | 0.00 | 0.00 | 84 | 1016.2 |
| 20260906083546 | 16 | 232 | 6.4 | 17.7 | 0.00 | 0.00 | 0.00 | 83 | 1016.1 |
| 20260906083048 | 16 | 203 | 8.0 | 17.7 | 0.00 | 0.00 | 0.00 | 83 | 1016.0 |
| 20260906082541 | 16 | 215 | 8.0 | 14.5 | 0.00 | 0.00 | 0.00 | 83 | 1016.2 |
| 20260906082041 | 16 | 234 | 8.0 | 17.7 | 0.00 | 0.00 | 0.00 | 83 | 1016.1 |
| 20260906081543 | 16 | 205 | 9.7 | 22.5 | 0.00 | 0.00 | 0.00 | 82 | 1016.2 |
| 20260906081043 | 16 | 218 | 9.7 | 22.5 | 0.00 | 0.00 | 0.00 | 82 | 1016.2 |
| 20260906080538 | 16 | 234 | 8.0 | 19.3 | 0.00 | 0.00 | 0.00 | 82 | 1016.3 |
| 20260906080038 | 16 | 241 | 8.0 | 16.1 | 0.00 | 0.00 | 0.00 | 82 | 1016.3 |
| 20260906075538 | 16 | 219 | 9.7 | 16.1 | 0.00 | 0.00 | 0.00 | 82 | 1016.3 |
| 20260906075038 | 16 | 219 | 8.0 | 16.1 | 0.00 | 0.00 | 0.00 | 82 | 1016.5 |
| 20260906074538 | 16 | 206 | 9.7 | 16.1 | 0.00 | 0.00 | 0.00 | 82 | 1016.3 |
| 20260906074036 | 16 | 230 | 8.0 | 14.5 | 0.00 | 0.00 | 0.00 | 82 | 1016.3 |
| 20260906073536 | 16 | 226 | 8.0 | 14.5 | 0.00 | 0.00 | 0.00 | 82 | 1016.4 |
| 20260906073037 | 16 | 230 | 6.4 | 16.1 | 0.00 | 0.00 | 0.00 | 82 | 1016.4 |
| 20260906072536 | 16 | 250 | 8.0 | 17.7 | 0.00 | 0.00 | 0.00 | 82 | 1016.4 |
| 20260906072035 | 16 | 240 | 9.7 | 17.7 | 0.00 | 0.00 | 0.00 | 81 | 1016.3 |
| 20260906071541 | 16 | 236 | 8.0 | 17.7 | 0.00 | 0.00 | 0.00 | 82 | 1016.3 |
| 20260906071034 | 16 | 228 | 6.4 | 16.1 | 0.00 | 0.00 | 0.00 | 81 | 1016.3 |
| 20260906070533 | 16 | 204 | 8.0 | 17.7 | 0.00 | 0.00 | 0.00 | 81 | 1016.5 |
| 20260906070034 | 16 | 215 | 8.0 | 20.9 | 0.00 | 0.00 | 0.00 | 81 | 1016.4 |
| 20260906065536 | 16 | 219 | 9.7 | 22.5 | 0.00 | 0.00 | 0.00 | 81 | 1016.4 |
| 20260906065033 | 16 | 194 | 12.9 | 22.5 | 0.00 | 0.00 | 0.00 | 81 | 1016.4 |
| 20260906064535 | 16 | 191 | 9.7 | 22.5 | 0.00 | 0.00 | 0.00 | 82 | 1016.4 |
| 20260906064032 | 16 | 159 | 9.7 | 22.5 | 0.00 | 0.00 | 0.00 | 82 | 1016.4 |
| 20260906063530 | 16 | 199 | 11.3 | 19.3 | 0.00 | 0.00 | 0.00 | 82 | 1016.5 |
| 20260906063030 | 16 | 170 | 9.7 | 17.7 | 0.00 | 0.00 | 0.00 | 82 | 1016.4 |
| 20260906062529 | 16 | 182 | 9.7 | 17.7 | 0.00 | 0.00 | 0.00 | 82 | 1016.4 |
| 20260906062028 | 16 | 196 | 8.0 | 20.9 | 0.00 | 0.00 | 0.00 | 82 | 1016.5 |
| 20260906061527 | 17 | 163 | 6.4 | 16.1 | 0.00 | 0.00 | 0.00 | 81 | 1016.5 |
| 20260906061025 | 17 | 180 | 9.7 | 16.1 | 0.00 | 0.00 | 0.00 | 80 | 1016.4 |
| 20260906060524 | 17 | 171 | 8.0 | 16.1 | 0.00 | 0.00 | 0.00 | 80 | 1016.4 |
| 20260906060023 | 17 | 181 | 6.4 | 16.1 | 0.00 | 0.00 | 0.00 | 80 | 1016.4 |
| 20260906055522 | 17 | 183 | 6.4 | 16.1 | 0.00 | 0.00 | 0.00 | 80 | 1016.3 |
| 20260906055026 | 17 | 173 | 8.0 | 14.5 | 0.00 | 0.00 | 0.00 | 80 | 1016.3 |
| 20260906054522 | 17 | 215 | 4.8 | 14.5 | 0.00 | 0.00 | 0.00 | 80 | 1016.1 |
| 20260906054021 | 17 | 178 | 6.4 | 14.5 | 0.00 | 0.00 | 0.00 | 80 | 1016.2 |
| 20260906053520 | 17 | 138 | 4.8 | 14.5 | 0.00 | 0.00 | 0.00 | 80 | 1016.1 |
| 20260906053027 | 17 | 228 | 8.0 | 14.5 | 0.00 | 0.00 | 0.00 | 80 | 1016.1 |
| 20260906052521 | 17 | 225 | 6.4 | 14.5 | 0.00 | 0.00 | 0.00 | 79 | 1016.3 |
| 20260906052021 | 17 | 227 | 9.7 | 12.9 | 0.00 | 0.00 | 0.00 | 79 | 1016.4 |
| 20260906051527 | 17 | 234 | 8.0 | 12.9 | 0.00 | 0.00 | 0.00 | 78 | 1016.3 |
| 20260906051020 | 17 | 198 | 4.8 | 17.7 | 0.00 | 0.00 | 0.00 | 78 | 1016.2 |
| 20260906050522 | 17 | 156 | 12.9 | 17.7 | 0.00 | 0.00 | 0.00 | 76 | 1016.3 |
| 20260906050045 | 18 | 133 | 6.4 | 12.9 | 0.00 | 0.00 | 0.00 | 76 | 1016.1 |
| 20260906045519 | 18 | 152 | 9.7 | 16.1 | 0.00 | 0.00 | 0.00 | 76 | 1016.2 |
| 20260906045021 | 18 | 188 | 9.7 | 16.1 | 0.00 | 0.00 | 0.00 | 75 | 1016.1 |
| 20260906044518 | 18 | 163 | 8.0 | 16.1 | 0.00 | 0.00 | 0.00 | 75 | 1016.2 |
| 20260906044017 | 18 | 167 | 9.7 | 17.7 | 0.00 | 0.00 | 0.00 | 75 | 1016.2 |
| 20260906043519 | 18 | 142 | 8.0 | 19.3 | 0.00 | 0.00 | 0.00 | 74 | 1016.3 |
| 20260906043018 | 18 | 141 | 12.9 | 19.3 | 0.00 | 0.00 | 0.00 | 74 | 1016.3 |
| 20260906042518 | 18 | 148 | 9.7 | 16.1 | 0.00 | 0.00 | 0.00 | 74 | 1016.3 |
| 20260906042017 | 19 | 144 | 8.0 | 24.1 | 0.00 | 0.00 | 0.00 | 73 | 1016.3 |
| 20260906041518 | 19 | 167 | 12.9 | 24.1 | 0.00 | 0.00 | 0.00 | 73 | 1016.2 |
| 20260906041018 | 19 | 148 | 16.1 | 22.5 | 0.00 | 0.00 | 0.00 | 73 | 1016.4 |
| 20260906040516 | 19 | 134 | 14.5 | 22.5 | 0.00 | 0.00 | 0.00 | 72 | 1016.4 |
| 20260906040017 | 19 | 131 | 11.3 | 24.1 | 0.00 | 0.00 | 0.00 | 72 | 1016.4 |
| 20260906035515 | 20 | 145 | 16.1 | 24.1 | 0.00 | 0.00 | 0.00 | 73 | 1016.4 |
| 20260906035016 | 20 | 145 | 12.9 | 25.7 | 0.00 | 0.00 | 0.00 | 74 | 1016.5 |
| 20260906034516 | 20 | 151 | 16.1 | 25.7 | 0.00 | 0.00 | 0.00 | 74 | 1016.4 |
| 20260906034015 | 20 | 170 | 9.7 | 24.1 | 0.00 | 0.00 | 0.00 | 75 | 1016.5 |
| 20260906033515 | 20 | 151 | 11.3 | 24.1 | 0.00 | 0.00 | 0.00 | 76 | 1016.4 |
| 20260906033021 | 20 | 174 | 12.9 | 24.1 | 0.00 | 0.00 | 0.00 | 77 | 1016.4 |
| 20260906032514 | 20 | 146 | 11.3 | 24.1 | 0.00 | 0.00 | 0.00 | 77 | 1016.3 |
| 20260906032014 | 20 | 172 | 12.9 | 24.1 | 0.00 | 0.00 | 0.00 | 77 | 1016.2 |
| 20260906031519 | 20 | 171 | 12.9 | 27.4 | 0.00 | 0.00 | 0.00 | 77 | 1016.3 |
| 20260906031014 | 20 | 146 | 17.7 | 27.4 | 0.00 | 0.00 | 0.00 | 75 | 1016.4 |
| 20260906030517 | 20 | 136 | 17.7 | 25.7 | 0.00 | 0.00 | 0.00 | 72 | 1016.5 |
| 20260906030011 | 20 | 130 | 12.9 | 24.1 | 0.00 | 0.00 | 0.00 | 71 | 1016.5 |
| 20260906025511 | 20 | 124 | 12.9 | 20.9 | 0.00 | 0.00 | 0.00 | 69 | 1016.5 |
| 20260906025013 | 20 | 159 | 11.3 | 19.3 | 0.00 | 0.00 | 0.00 | 69 | 1016.4 |
| 20260906024510 | 20 | 191 | 9.7 | 14.5 | 0.00 | 0.00 | 0.00 | 68 | 1016.3 |
| 20260906024010 | 21 | 165 | 8.0 | 16.1 | 0.00 | 0.00 | 0.00 | 68 | 1016.2 |
| 20260906023510 | 21 | 161 | 9.7 | 14.5 | 0.00 | 0.00 | 0.00 | 67 | 1016.1 |
| 20260906023010 | 21 | 194 | 6.4 | 11.3 | 0.00 | 0.00 | 0.00 | 67 | 1016.2 |
| 20260906022509 | 21 | 188 | 6.4 | 11.3 | 0.00 | 0.00 | 0.00 | 66 | 1016.1 |
| 20260906022009 | 21 | 148 | 6.4 | 11.3 | 0.00 | 0.00 | 0.00 | 65 | 1016.1 |
| 20260906021509 | 21 | 161 | 4.8 | 8.0 | 0.00 | 0.00 | 0.00 | 65 | 1016.0 |
| 20260906021009 | 21 | 134 | 3.2 | 11.3 | 0.00 | 0.00 | 0.00 | 65 | 1015.9 |
| 20260906020511 | 21 | 198 | 4.8 | 11.3 | 0.00 | 0.00 | 0.00 | 65 | 1015.8 |
| 20260906020009 | 21 | 174 | 4.8 | 9.7 | 0.00 | 0.00 | 0.00 | 64 | 1015.7 |
| 20260906015507 | 22 | 142 | 4.8 | 11.3 | 0.00 | 0.00 | 0.00 | 64 | 1015.7 |
| 20260906015007 | 22 | 140 | 6.4 | 11.3 | 0.00 | 0.00 | 0.00 | 63 | 1015.6 |
| 20260906014510 | 22 | 204 | 6.4 | 16.1 | 0.00 | 0.00 | 0.00 | 63 | 1015.6 |
| 20260906014011 | 22 | 161 | 4.8 | 16.1 | 0.00 | 0.00 | 0.00 | 62 | 1015.5 |
| 20260906013507 | 22 | 145 | 8.0 | 14.5 | 0.00 | 0.00 | 0.00 | 62 | 1015.5 |
| 20260906013010 | 23 | 157 | 3.2 | 9.7 | 0.00 | 0.00 | 0.00 | 61 | 1015.3 |
| 20260906012506 | 23 | 180 | 3.2 | 14.5 | 0.00 | 0.00 | 0.00 | 60 | 1015.3 |
| 20260906012010 | 23 | 139 | 6.4 | 22.5 | 0.00 | 0.00 | 0.00 | 59 | 1015.3 |
| 20260906011507 | 23 | 114 | 14.5 | 27.4 | 0.00 | 0.00 | 0.00 | 59 | 1015.3 |
| 20260906011006 | 23 | 121 | 17.7 | 27.4 | 0.00 | 0.00 | 0.00 | 58 | 1015.4 |
| 20260906010511 | 24 | 148 | 19.3 | 33.8 | 0.00 | 0.00 | 0.00 | 59 | 1015.5 |
| 20260906010007 | 24 | 116 | 22.5 | 33.8 | 0.00 | 0.00 | 0.00 | 59 | 1015.5 |
| 20260906005506 | 25 | 134 | 16.1 | 33.8 | 0.00 | 0.00 | 0.00 | 61 | 1015.4 |
| 20260906005005 | 25 | 127 | 19.3 | 33.8 | 0.00 | 0.00 | 0.00 | 60 | 1015.5 |
| 20260906004506 | 26 | 129 | 20.9 | 29.0 | 0.00 | 0.00 | 0.00 | 58 | 1015.5 |
| 20260906004005 | 26 | 117 | 14.5 | 29.0 | 0.00 | 0.00 | 0.00 | 54 | 1015.4 |
| 20260906003507 | 26 | 107 | 19.3 | 29.0 | 0.00 | 0.00 | 0.00 | 51 | 1015.4 |
| 20260906003005 | 27 | 115 | 17.7 | 25.7 | 0.00 | 0.00 | 0.00 | 47 | 1015.3 |
| 20260906002504 | 27 | 114 | 19.3 | 25.7 | 0.00 | 0.00 | 0.00 | 46 | 1015.3 |
| 20260906002004 | 28 | 115 | 16.1 | 22.5 | 0.00 | 0.00 | 0.00 | 46 | 1015.2 |
| 20260906001503 | 28 | 84 | 16.1 | 29.0 | 0.00 | 0.00 | 0.00 | 45 | 1015.2 |
| 20260906001004 | 28 | 92 | 22.5 | 29.0 | 0.00 | 0.00 | 0.00 | 45 | 1015.0 |
| 20260906000502 | 28 | 96 | 19.3 | 30.6 | 0.00 | 0.00 | 0.00 | 44 | 1015.0 |
| 20260906000003 | 28 | 103 | 22.5 | 30.6 | 0.00 | 0.00 | 0.00 | 44 | 1015.2 |
| 20260905235501 | 28 | 95 | 20.9 | 29.0 | 0.00 | 0.00 | 0.00 | 43 | 1015.1 |
| 20260905235002 | 28 | 73 | 8.0 | 30.6 | 0.00 | 0.00 | 0.00 | 40 | 1015.1 |
| 20260905234501 | 29 | 73 | 14.5 | 30.6 | 0.00 | 0.00 | 0.00 | 38 | 1015.2 |
| 20260905234002 | 29 | 60 | 17.7 | 27.4 | 0.00 | 0.00 | 0.00 | 40 | 1015.2 |
| 20260905233501 | 29 | 63 | 12.9 | 32.2 | 0.00 | 0.00 | 0.00 | 40 | 1015.2 |
| 20260905233001 | 29 | 62 | 17.7 | 32.2 | 0.00 | 0.00 | 0.00 | 39 | 1015.2 |
| 20260905232600 | 29 | 71 | 12.9 | 25.7 | 0.00 | 0.00 | 0.00 | 39 | 1015.2 |
| 20260905232500 | 29 | 71 | 12.9 | 25.7 | 0.00 | 0.00 | 0.00 | 39 | 1015.2 |
| 20260905232100 | 29 | 52 | 12.9 | 25.7 | 0.00 | 0.00 | 0.00 | 39 | 1015.2 |
| 20260905231600 | 28 | 58 | 12.9 | 35.4 | 0.00 | 0.00 | 0.00 | 40 | 1015.1 |
| 20260905231102 | 28 | 61 | 17.7 | 35.4 | 0.00 | 0.00 | 0.00 | 39 | 1015.1 |
| 20260905230559 | 29 | 68 | 14.5 | 38.6 | 0.00 | 0.00 | 0.00 | 39 | 1015.1 |
| 20260905230058 | 30 | 65 | 24.1 | 32.2 | 0.00 | 0.00 | 0.00 | 36 | 1015.1 |
| 20260905225601 | 30 | 44 | 12.9 | 27.4 | 0.00 | 0.00 | 0.00 | 30 | 1015.1 |
| 20260905225102 | 30 | 32 | 17.7 | 27.4 | 0.00 | 0.00 | 0.00 | 29 | 1015.0 |
| 20260905224604 | 30 | 49 | 12.9 | 25.7 | 0.00 | 0.00 | 0.00 | 29 | 1015.1 |
| 20260905224058 | 30 | 43 | 11.3 | 27.4 | 0.00 | 0.00 | 0.00 | 28 | 1015.1 |
| 20260905223557 | 30 | 68 | 14.5 | 27.4 | 0.00 | 0.00 | 0.00 | 28 | 1015.3 |
| 20260905223057 | 30 | 20 | 11.3 | 24.1 | 0.00 | 0.00 | 0.00 | 29 | 1015.4 |
| 20260905222559 | 31 | 42 | 14.5 | 24.1 | 0.00 | 0.00 | 0.00 | 28 | 1015.4 |
| 20260905222056 | 31 | 17 | 14.5 | 22.5 | 0.00 | 0.00 | 0.00 | 28 | 1015.4 |
| 20260905221557 | 31 | 34 | 14.5 | 24.1 | 0.00 | 0.00 | 0.00 | 28 | 1015.4 |
| 20260905221056 | 31 | 53 | 16.1 | 24.1 | 0.00 | 0.00 | 0.00 | 27 | 1015.4 |
| 20260905220555 | 31 | 74 | 12.9 | 22.5 | 0.00 | 0.00 | 0.00 | 27 | 1015.4 |
| 20260905220055 | 32 | 64 | 16.1 | 22.5 | 0.00 | 0.00 | 0.00 | 26 | 1015.3 |
| 20260905215555 | 32 | 68 | 6.4 | 19.3 | 0.00 | 0.00 | 0.00 | 26 | 1015.2 |
| 20260905215054 | 32 | 58 | 11.3 | 19.3 | 0.00 | 0.00 | 0.00 | 25 | 1015.1 |
| 20260905214605 | 32 | 51 | 11.3 | 19.3 | 0.00 | 0.00 | 0.00 | 26 | 1015.0 |
| 20260905214054 | 32 | 53 | 11.3 | 20.9 | 0.00 | 0.00 | 0.00 | 26 | 1015.0 |
| 20260905213555 | 32 | 44 | 12.9 | 20.9 | 0.00 | 0.00 | 0.00 | 25 | 1015.1 |
| 20260905213054 | 32 | 42 | 9.7 | 20.9 | 0.00 | 0.00 | 0.00 | 26 | 1015.0 |
| 20260905212554 | 32 | 53 | 14.5 | 19.3 | 0.00 | 0.00 | 0.00 | 25 | 1015.1 |
| 20260905212053 | 32 | 41 | 9.7 | 17.7 | 0.00 | 0.00 | 0.00 | 26 | 1015.1 |
| 20260905211551 | 32 | 35 | 8.0 | 17.7 | 0.00 | 0.00 | 0.00 | 26 | 1015.1 |